Regional Weather Roundup
Issued by NWS

Home | Current Version | Previous Version | Graphics & Text | Print | Product List | Glossary On
Versions: 1 2 3 4 5 6 7 8 9 10 11 12 13 14 15 16 17 18 19 20 21 22 23 24 25 26 27 28 29 30 31 32 33 34 35 36 37 38 39 40 41 42 43 44 45 46 47 48 49 50
000
ASUS44 KMEG 211300
RWRTN
TENNESSEE HOURLY STATE WEATHER ROUNDUP
NATIONAL WEATHER SERVICE MEMPHIS TN
800 AM CDT TUE OCT 21 2014

TNZ002-004-019-021-049-052-054-088>092-211400-
WEST TENNESSEE

CITY           SKY/WX    TMP DP  RH WIND       PRES   REMARKS
MEMPHIS INTL   CLEAR     56  54  93 CALM      30.07R
NWS MEMPHIS      N/A     50 N/A N/A MISG        N/A
JACKSON        CLOUDY    47  46  97 CALM      30.07R
DYERSBURG      CLEAR     48  37  66 CALM      30.09R
UNION CITY     CLEAR     45  45 100 CALM      30.06R
PARIS            N/A     45  43  93 CALM      30.06S
LEXINGTON        N/A     45  45 100 CALM      30.05R VSB 1/4
SAVANNAH       SUNNY     45  45 100 CALM      30.07R
$$

TNZ008-025-027-028-033-062-065-066-211400-
NORTH MIDDLE TENNESSEE

CITY           SKY/WX    TMP DP  RH WIND       PRES   REMARKS
NASHVILLE      SUNNY     48  47  96 CALM      30.06R
CLARKSVILLE    SUNNY     49  47  93 W3        30.05R
COOKEVILLE     SUNNY     46  46 100 CALM      30.03S
CROSSVILLE     SUNNY     50  47  89 W7        30.04R
$$

TNZ061-075-076-078-094-096-097-211400-
SOUTH MIDDLE TENNESSEE

CITY           SKY/WX    TMP DP  RH WIND       PRES   REMARKS
WINCHESTER     SUNNY     46  46 100 CALM      30.06R
MCMINNVILLE    SUNNY     46  46 100 CALM      30.04S
SHELBYVILLE    SUNNY     46  46 100 CALM      30.06R
$$

TNZ017-018-042-046-047-211400-
NORTHEAST TENNESSEE

CITY           SKY/WX    TMP DP  RH WIND       PRES   REMARKS
TRI CITIES     PTSUNNY   54  51  90 W3        29.99R
ELIZABETHTON   CLOUDY    54  48  82 CALM      29.99R
$$

TNZ012-013-036-069-073-074-211400-
CENTRAL EAST TENNESSEE

CITY           SKY/WX    TMP DP  RH WIND       PRES   REMARKS
KNOXVILLE      MOSUNNY   53  49  86 SW6       30.01R
OAK RIDGE      SUNNY     50  47  89 CALM      30.03R
GATLINBURG     SUNNY     48  46  93 CALM      30.01R
MORRISTOWN     SUNNY     54  50  87 SW7       30.01R
$$

TNZ083-085-099-211400-
SOUTHEAST TENNESSEE

CITY           SKY/WX    TMP DP  RH WIND       PRES   REMARKS
CHATTANOOGA    SUNNY     51  48  89 CALM      30.04R
$$

SKY/WX REPORTED AS FAIR MEANS FEW OR NO CLOUDS BELOW
12 THOUSAND FEET.




USA.gov is the U.S. government's official web portal to all federal, state and local government web resources and services.